This is the latest recevied weather packets stored in our database for station/object KK7KRZ. If no packets are shown the sender has not sent any weather packets the latest 10 day(s).
| Time | Temp. | Humidity | Pressure | Rain* | Wind** | Luminosity | Snow |
|---|---|---|---|---|---|---|---|
| 1777919185 | 15.56° C | 79% | 1013.5 hPa | 0 mm | - | 260 W/m² | - |
| 1777918883 | 15.56° C | 79% | 1013.6 hPa | 0 mm | - | 259 W/m² | - |
| 1777918580 | 15° C | 82% | 1013.8 hPa | 0 mm | - | 216 W/m² | - |
| 1777918277 | 15° C | 81% | 1013.6 hPa | 0 mm | - | 192 W/m² | - |
| 1777917977 | 14.44° C | 82% | 1013.7 hPa | 0 mm | - | 195 W/m² | - |
| 1777917675 | 14.44° C | 83% | 1013.7 hPa | 0 mm | - | 222 W/m² | - |
| 1777917371 | 14.44° C | 82% | 1013.9 hPa | 0 mm | - | 193 W/m² | - |
| 1777917068 | 14.44° C | 83% | 1013.6 hPa | 0 mm | - | 147 W/m² | - |
| 1777916767 | 14.44° C | 83% | 1013.5 hPa | 0 mm | - | 146 W/m² | - |
| 1777916462 | 14.44° C | 83% | 1013.7 hPa | 0 mm | - | 148 W/m² | - |
| 1777916159 | 14.44° C | 82% | 1013.6 hPa | 0 mm | - | 172 W/m² | - |
| 1777915857 | 15° C | 81% | 1013.7 hPa | 0 mm | - | 178 W/m² | - |
| 1777915553 | 14.44° C | 82% | 1013.4 hPa | 0 mm | - | 177 W/m² | - |
| 1777915250 | 14.44° C | 82% | 1013.8 hPa | 0 mm | - | 191 W/m² | - |
| 1777914946 | 14.44° C | 83% | 1013.5 hPa | 0 mm | - | 172 W/m² | - |
| 1777914644 | 14.44° C | 83% | 1013.6 hPa | 0 mm | - | 155 W/m² | - |
| 1777914339 | 14.44° C | 83% | 1013.7 hPa | 0 mm | - | 196 W/m² | - |
| 1777914037 | 14.44° C | 84% | 1013.7 hPa | 0 mm | - | 157 W/m² | - |
| 1777913733 | 13.89° C | 84% | 1013.4 hPa | 0 mm | - | 148 W/m² | - |
| 1777913430 | 13.89° C | 84% | 1013.7 hPa | 0 mm | - | 141 W/m² | - |
| 1777913126 | 13.89° C | 84% | 1013.4 hPa | 0 mm | - | 146 W/m² | - |
| 1777912823 | 13.33° C | 85% | 1013.5 hPa | 0 mm | - | 137 W/m² | - |
| 1777912519 | 13.89° C | 84% | 1013.5 hPa | 0 mm | - | 148 W/m² | - |
| 1777912216 | 13.89° C | 85% | 1013.6 hPa | 0 mm | - | 148 W/m² | - |
| 1777911912 | 13.33° C | 85% | 1013.5 hPa | 0 mm | - | 116 W/m² | - |
* Rain latest hour (hover to see other rain measurements)
** Current wind speed in m/s (hover to see current wind gust speed)